Update The SL-23 rocket debris re-entered the Earths atmosphere on the 2nd August, 2011.
SL-23 rocket debris that was launched on the 18th July, 2011, from the Baikonur Cosmodrome for the Spektr-R mission is predicted to re-enter the Earths atmosphere on the 2nd August, 2011 @ 16:00 GMT ± 96 hours.
SL-23 DEB 1 37760U 11037F 11207.82605163 .02271428 10815-4 10796-2 0 145 2 37760 051.3889 298.7728 0270159 110.1311 252.9008 15.73805920 1168
Period: 91.84 minutes Inclination: 51.38° Apogee: 561 kmPerigee: 168 kmRevolution Number: 224Predicted Location: 49.5°N, 183.7°E